When you browse on this site, cookies collect data to enhance your experience and personalize the content and advertising you see.
Visit our Privacy Policy to learn more. By continuing to use the site, you agree to this use of cookies and data.
  • En España
  • Lista de países
  • Para 7 días
  • Temperatura del agua
  • Mapa Satelital
  • El tiempo en el mapa
  • Informadores
  • user-avatar
    Iniciar sesión

    Tiempo cada hora Canillo

    Hoy, 21 Julio, Domingo

    Tiempo Temperatura Precipitaciones Viento Presión Humedad
    00:00 +13°C° 0 mm 0 mps 623 mmHg 87%
    01:00 +14°C° 0 mm 1 mps 623 mmHg 86%
    02:00 +14°C° 0 mm 1 mps 623 mmHg 85%
    03:00 +14°C° 0 mm 1 mps 623 mmHg 83%
    04:00 +15°C° 0 mm 1 mps 623 mmHg 80%
    05:00 +15°C° 0 mm 1 mps 623 mmHg 76%
    06:00 +16°C° 0 mm 1 mps 624 mmHg 72%
    07:00 +19°C° 0 mm 1 mps 625 mmHg 63%
    08:00 +22°C° 0 mm 1 mps 626 mmHg 55%
    09:00 +24°C° 0 mm 2 mps 627 mmHg 46%
    10:00 +25°C° 0 mm 2 mps 627 mmHg 44%
    11:00 +26°C° 0 mm 2 mps 627 mmHg 43%
    12:00 +27°C° 0 mm 2 mps 628 mmHg 41%
    13:00 +27°C° 0.2 mm 2 mps 627 mmHg 43%
    14:00 +26°C° 0.2 mm 2 mps 627 mmHg 46%
    15:00 +26°C° 0.2 mm 2 mps 627 mmHg 48%
    16:00 +25°C° 0.4 mm 2 mps 626 mmHg 55%
    17:00 +24°C° 0.4 mm 1 mps 626 mmHg 62%
    18:00 +23°C° 0.4 mm 1 mps 625 mmHg 69%
    19:00 +21°C° 0.1 mm 1 mps 625 mmHg 73%
    20:00 +19°C° 0.1 mm 1 mps 625 mmHg 77%
    21:00 +16°C° 0.1 mm 1 mps 624 mmHg 80%
    22:00 +16°C° 0.1 mm 1 mps 624 mmHg 80%
    23:00 +16°C° 0.1 mm 1 mps 624 mmHg 80%

    Mañana, 22 Julio, Lunes

    Tiempo Temperatura Precipitaciones Viento Presión Humedad
    00:00 +16°C° 0.1 mm 1 mps 624 mmHg 79%
    01:00 +15°C° 0 mm 1 mps 624 mmHg 78%
    02:00 +15°C° 0 mm 1 mps 624 mmHg 77%
    03:00 +15°C° 0 mm 1 mps 624 mmHg 77%
    04:00 +16°C° 0 mm 1 mps 624 mmHg 75%
    05:00 +18°C° 0 mm 1 mps 624 mmHg 73%
    06:00 +18°C° 0 mm 1 mps 625 mmHg 72%
    07:00 +21°C° 0 mm 1 mps 626 mmHg 60%
    08:00 +23°C° 0 mm 1 mps 627 mmHg 49%
    09:00 +26°C° 0 mm 1 mps 628 mmHg 38%
    10:00 +27°C° 0 mm 1 mps 628 mmHg 35%
    11:00 +28°C° 0 mm 2 mps 628 mmHg 33%
    12:00 +29°C° 0 mm 2 mps 628 mmHg 31%
    13:00 +28°C° 0.1 mm 2 mps 628 mmHg 35%
    14:00 +28°C° 0.1 mm 2 mps 627 mmHg 39%
    15:00 +27°C° 0.1 mm 2 mps 627 mmHg 42%
    16:00 +26°C° 0.1 mm 1 mps 626 mmHg 49%
    17:00 +25°C° 0.1 mm 1 mps 626 mmHg 55%
    18:00 +21°C° 0.1 mm 0 mps 625 mmHg 61%
    19:00 +22°C° 0 mm 1 mps 624 mmHg 62%
    20:00 +20°C° 0 mm 1 mps 624 mmHg 63%
    21:00 +18°C° 0 mm 1 mps 624 mmHg 64%
    22:00 +18°C° 0 mm 1 mps 623 mmHg 60%
    23:00 +18°C° 0 mm 1 mps 623 mmHg 57%

    Pasado mañana, 23 Julio, Martes

    Tiempo Temperatura Precipitaciones Viento Presión Humedad
    00:00 +17°C° 0 mm 2 mps 623 mmHg 53%
    01:00 +17°C° 0 mm 2 mps 623 mmHg 52%
    02:00 +17°C° 0 mm 2 mps 623 mmHg 50%
    03:00 +16°C° 0 mm 2 mps 622 mmHg 49%
    04:00 +17°C° 0 mm 2 mps 623 mmHg 50%
    05:00 +19°C° 0 mm 1 mps 623 mmHg 50%
    06:00 +19°C° 0 mm 1 mps 623 mmHg 51%
    07:00 +22°C° 0 mm 1 mps 624 mmHg 43%
    08:00 +24°C° 0 mm 1 mps 625 mmHg 36%
    09:00 +27°C° 0 mm 2 mps 626 mmHg 29%
    10:00 +28°C° 0 mm 2 mps 626 mmHg 27%
    11:00 +28°C° 0 mm 2 mps 626 mmHg 26%
    12:00 +29°C° 0 mm 2 mps 626 mmHg 24%
    13:00 +29°C° 0 mm 2 mps 626 mmHg 26%
    14:00 +29°C° 0 mm 2 mps 625 mmHg 27%
    15:00 +29°C° 0 mm 2 mps 625 mmHg 28%
    16:00 +27°C° 0 mm 2 mps 624 mmHg 36%
    17:00 +26°C° 0 mm 1 mps 624 mmHg 44%
    18:00 +24°C° 0 mm 1 mps 623 mmHg 52%
    19:00 +22°C° 0 mm 1 mps 623 mmHg 54%
    20:00 +20°C° 0 mm 1 mps 622 mmHg 56%
    21:00 +18°C° 0 mm 1 mps 622 mmHg 59%
    22:00 +18°C° 0 mm 1 mps 622 mmHg 57%
    23:00 +18°C° 0 mm 1 mps 622 mmHg 55%

    24 Julio, Miércoles

    Tiempo Temperatura Precipitaciones Viento Presión Humedad
    00:00 +18°C° 0 mm 1 mps 622 mmHg 54%
    01:00 +16°C° 0 mm 1 mps 621 mmHg 53%
    02:00 +16°C° 0 mm 1 mps 621 mmHg 52%
    03:00 +16°C° 0 mm 1 mps 621 mmHg 52%
    04:00 +18°C° 0 mm 1 mps 621 mmHg 53%
    05:00 +18°C° 0 mm 1 mps 622 mmHg 54%
    06:00 +19°C° 0 mm 1 mps 622 mmHg 56%
    07:00 +21°C° 0 mm 1 mps 623 mmHg 49%
    08:00 +24°C° 0 mm 1 mps 624 mmHg 42%
    09:00 +26°C° 0 mm 1 mps 625 mmHg 36%
    10:00 +27°C° 0 mm 1 mps 625 mmHg 34%
    11:00 +28°C° 0 mm 2 mps 625 mmHg 32%
    12:00 +28°C° 0 mm 2 mps 625 mmHg 30%
    13:00 +28°C° 0 mm 2 mps 624 mmHg 34%
    14:00 +27°C° 0 mm 2 mps 623 mmHg 39%
    15:00 +26°C° 0 mm 2 mps 623 mmHg 43%
    16:00 +25°C° 0.1 mm 2 mps 622 mmHg 48%
    17:00 +24°C° 0.1 mm 2 mps 622 mmHg 54%
    18:00 +23°C° 0.1 mm 1 mps 621 mmHg 59%
    19:00 +21°C° 0 mm 1 mps 621 mmHg 64%
    20:00 +19°C° 0 mm 1 mps 621 mmHg 68%
    21:00 +18°C° 0 mm 1 mps 620 mmHg 72%
    22:00 +16°C° 0 mm 1 mps 620 mmHg 71%
    23:00 +16°C° 0 mm 1 mps 620 mmHg 71%

    25 Julio, Jueves

    Tiempo Temperatura Precipitaciones Viento Presión Humedad
    00:00 +16°C° 0 mm 1 mps 620 mmHg 70%
    01:00 +16°C° 0 mm 1 mps 619 mmHg 70%
    02:00 +16°C° 0 mm 1 mps 619 mmHg 69%
    03:00 +16°C° 0 mm 2 mps 619 mmHg 69%
    04:00 +16°C° 0 mm 2 mps 619 mmHg 67%
    05:00 +17°C° 0 mm 2 mps 619 mmHg 64%
    06:00 +19°C° 0 mm 1 mps 620 mmHg 62%
    07:00 +20°C° 0 mm 2 mps 621 mmHg 53%
    08:00 +23°C° 0 mm 2 mps 622 mmHg 45%
    09:00 +26°C° 0 mm 2 mps 622 mmHg 36%
    10:00 +27°C° 0 mm 2 mps 623 mmHg 34%
    11:00 +27°C° 0 mm 2 mps 623 mmHg 32%
    12:00 +28°C° 0 mm 3 mps 623 mmHg 30%
    13:00 +28°C° 0 mm 3 mps 623 mmHg 32%
    14:00 +28°C° 0 mm 3 mps 622 mmHg 34%
    15:00 +27°C° 0 mm 3 mps 622 mmHg 35%
    16:00 +26°C° 0 mm 2 mps 621 mmHg 44%
    17:00 +24°C° 0 mm 2 mps 621 mmHg 52%
    18:00 +22°C° 0 mm 1 mps 620 mmHg 61%
    19:00 +21°C° 0.1 mm 1 mps 620 mmHg 68%
    20:00 +19°C° 0.1 mm 1 mps 620 mmHg 75%
    21:00 +16°C° 0.1 mm 1 mps 620 mmHg 82%
    22:00 +16°C° 0 mm 1 mps 620 mmHg 83%
    23:00 +14°C° 0 mm 0 mps 620 mmHg 84%

    26 Julio, Viernes

    Tiempo Temperatura Precipitaciones Viento Presión Humedad
    00:00 +14°C° 0 mm 0 mps 620 mmHg 85%
    01:00 +14°C° 0 mm 0 mps 620 mmHg 85%
    02:00 +13°C° 0 mm 0 mps 619 mmHg 86%
    03:00 +13°C° 0 mm 0 mps 619 mmHg 87%
    04:00 +13°C° 0 mm 0 mps 620 mmHg 85%
    05:00 +13°C° 0 mm 0 mps 620 mmHg 83%
    06:00 +14°C° 0 mm 0 mps 620 mmHg 81%
    07:00 +16°C° 0 mm 1 mps 621 mmHg 74%
    08:00 +18°C° 0 mm 2 mps 622 mmHg 67%
    09:00 +20°C° 0 mm 2 mps 623 mmHg 60%
    10:00 +21°C° 0 mm 3 mps 623 mmHg 56%
    11:00 +22°C° 0 mm 3 mps 623 mmHg 52%
    12:00 +23°C° 0 mm 4 mps 623 mmHg 48%
    13:00 +22°C° 0 mm 4 mps 623 mmHg 49%
    14:00 +22°C° 0 mm 4 mps 623 mmHg 51%
    15:00 +22°C° 0 mm 4 mps 623 mmHg 52%
    16:00 +20°C° 0 mm 3 mps 622 mmHg 61%
    17:00 +19°C° 0 mm 2 mps 622 mmHg 69%
    18:00 +18°C° 0 mm 1 mps 622 mmHg 77%
    19:00 +16°C° 0.1 mm 1 mps 622 mmHg 82%
    20:00 +15°C° 0.1 mm 1 mps 621 mmHg 88%
    21:00 +13°C° 0.1 mm 1 mps 621 mmHg 94%
    22:00 +13°C° 0.1 mm 1 mps 621 mmHg 94%
    23:00 +13°C° 0.1 mm 1 mps 621 mmHg 94%
    Mostrar más